Location: Chuathbaluk
(61.5726°N, 159.2454°W)
Time: 04:24:23
(UTC+00:00)

Transit 2A - Pass Details

Date: 30 November 2020
Orbit: 599 x 960 km, 66.7° (Epoch: 26 January)

Event Time Altitude Azimuth Distance (km) Brightness Sun altitude
Rises 06:36:49 0° 253° (WSW) 3,582 10.2 -34.4°
Reaches altitude 10° 06:39:28 10° 257° (WSW) 2,604 9.3 -34.7°
Enters shadow 06:43:40 43° 277° (W) 1,216 7.3 -35.2°
Maximum altitude 06:45:29 63° 339° (NNW) 957 - -35.4°
Drops below altitude 10° 06:50:59 10° 60° (ENE) 2,383 - -36.0°
Sets 06:53:19 0° 64° (ENE) 3,257 - -36.2°
